TimeEST,TemperatureF,Dew PointF,Humidity,Sea Level PressureIn,VisibilityMPH,Wind Direction,Wind SpeedMPH,Gust SpeedMPH,PrecipitationIn,Events,Conditions,WindDirDegrees,DateUTC
12:00 AM,32.0,28.4,87,29.92,6.0,NNE,12.7,-,N/A,,Overcast,30,2013-03-01 05:00:00
12:08 AM,32.0,28.4,87,29.92,3.0,NNE,9.2,-,0.00,Snow,Light Snow,20,2013-03-01 05:08:00
12:28 AM,30.2,28.4,93,29.92,10.0,NNE,9.2,-,0.00,,Overcast,20,2013-03-01 05:28:00
12:53 AM,30.9,28.9,92,29.94,10.0,North,10.4,-,0.00,,Overcast,10,2013-03-01 05:53:00
1:11 AM,30.2,28.4,93,29.93,10.0,NNE,10.4,-,N/A,,Overcast,20,2013-03-01 06:11:00
1:26 AM,30.2,28.4,93,29.93,10.0,North,6.9,-,N/A,,Overcast,10,2013-03-01 06:26:00
1:53 AM,30.9,28.0,89,29.94,10.0,North,6.9,-,N/A,,Overcast,10,2013-03-01 06:53:00
2:24 AM,30.2,28.4,93,29.93,10.0,North,8.1,-,N/A,,Overcast,10,2013-03-01 07:24:00
2:38 AM,30.2,28.4,93,29.92,10.0,North,9.2,-,N/A,,Overcast,10,2013-03-01 07:38:00
2:53 AM,30.9,28.0,89,29.94,10.0,North,6.9,-,N/A,,Overcast,10,2013-03-01 07:53:00
3:25 AM,30.2,26.6,86,29.92,10.0,North,10.4,-,N/A,,Overcast,350,2013-03-01 08:25:00
3:53 AM,30.9,26.1,82,29.94,10.0,North,6.9,-,N/A,,Overcast,350,2013-03-01 08:53:00
4:05 AM,30.2,26.6,86,29.93,10.0,North,10.4,-,N/A,,Overcast,360,2013-03-01 09:05:00
4:53 AM,30.0,25.0,82,29.95,10.0,North,11.5,-,N/A,,Overcast,360,2013-03-01 09:53:00
5:53 AM,30.0,24.1,79,29.96,10.0,NNE,10.4,-,N/A,,Overcast,20,2013-03-01 10:53:00
6:53 AM,30.0,24.1,79,29.97,10.0,North,10.4,-,N/A,,Overcast,360,2013-03-01 11:53:00
7:53 AM,30.0,24.1,79,29.99,10.0,North,10.4,-,N/A,,Overcast,10,2013-03-01 12:53:00
8:53 AM,30.0,24.1,79,30.01,8.0,North,10.4,-,0.00,Snow,Light Snow,10,2013-03-01 13:53:00
9:53 AM,30.0,24.1,79,30.02,10.0,NNE,12.7,-,0.00,,Overcast,20,2013-03-01 14:53:00
10:53 AM,28.9,24.1,82,30.03,7.0,North,8.1,-,0.00,Snow,Light Snow,10,2013-03-01 15:53:00
11:07 AM,28.4,24.8,86,30.01,7.0,NE,8.1,-,0.00,Snow,Light Snow,40,2013-03-01 16:07:00
11:42 AM,28.4,24.8,86,30.02,9.0,NE,10.4,-,0.00,Snow,Light Snow,40,2013-03-01 16:42:00
11:53 AM,28.9,24.1,82,30.04,9.0,NNE,6.9,-,0.00,Snow,Light Snow,20,2013-03-01 16:53:00
12:25 PM,28.4,23.0,80,30.02,10.0,NNE,12.7,-,0.00,,Overcast,20,2013-03-01 17:25:00
1:53 PM,30.0,23.0,75,30.02,10.0,North,12.7,-,N/A,,Overcast,360,2013-03-01 18:53:00
2:53 PM,28.9,21.9,75,30.02,10.0,North,9.2,-,N/A,,Overcast,350,2013-03-01 19:53:00
3:53 PM,28.9,21.0,72,30.02,10.0,North,11.5,-,N/A,,Overcast,350,2013-03-01 20:53:00
4:53 PM,28.0,21.0,75,30.03,10.0,North,10.4,-,N/A,,Overcast,350,2013-03-01 21:53:00
5:53 PM,28.0,21.0,75,30.05,9.0,North,9.2,-,0.00,,Overcast,360,2013-03-01 22:53:00
6:24 PM,26.6,21.2,80,30.03,10.0,North,12.7,-,N/A,,Overcast,360,2013-03-01 23:24:00
6:33 PM,26.6,21.2,80,30.03,10.0,North,10.4,-,N/A,,Overcast,10,2013-03-01 23:33:00
6:53 PM,27.0,19.9,75,30.06,10.0,North,9.2,-,N/A,,Overcast,10,2013-03-01 23:53:00
7:53 PM,27.0,19.9,75,30.07,10.0,North,9.2,-,N/A,,Overcast,360,2013-03-02 00:53:00
8:53 PM,27.0,19.0,72,30.08,10.0,NNE,10.4,-,N/A,,Overcast,20,2013-03-02 01:53:00
9:53 PM,27.0,19.0,72,30.08,10.0,North,9.2,-,N/A,,Overcast,350,2013-03-02 02:53:00
10:53 PM,26.1,19.9,78,30.08,5.0,North,8.1,-,0.00,Snow,Light Snow,360,2013-03-02 03:53:00
11:53 PM,26.1,19.9,78,30.07,10.0,North,8.1,-,0.00,,Overcast,350,2013-03-02 04:53:00